Погода в Инкине

Россия / Томская область     58°28′58″N   82°07′25″E
темп.,
°C
ветер,
м/с
пор.,
м/с
влажн.,
%
обл.,
%
осадки,
мм/ч
давл.,
гПа
погр.,
м
7 мая, пт
пт701:00+13сз71375100 1.9 1000703
04:00+10сз612750 0.0 1002537
07:00+9зсз49820 0.0 1004566
10:00+12з576014 0.0 10061309
13:00+13з6945100 0.1 10072346
16:00+12з8114797 0.2 10081840
19:00+12з7114544 0.3 10102237
22:00+8з365881 0.0 1012111
8 мая, сб
сб801:00+6юз486699 0.0 1012157
04:00+6зюз512665 0.0 1012312
07:00+6зюз613652 0.0 1013540
10:00+11зсз7154997 0.0 10121838
13:00+13зсз9143553 0.0 10122258
16:00+12ссз8134380 0.0 10131954
19:00+10ссз8115134 0.0 10161455
22:00+5ссз59625 0.0 1018689
9 мая, вс
вс901:00+3сз48715 0.0 1019354
04:00+2сз37825 0.0 1020197
07:00+2сз34815 0.0 1022175
10:00+6с346316 0.0 1022771
13:00+10с22515 0.0 10221178
16:00+12с114241 0.0 10221451
19:00+13ссз11415 0.0 10221594
22:00+9сз22555 0.0 102215
10 мая, пн
пн1001:00+8с226092 0.0 102217
04:00+6в117282 0.0 102133
07:00+7св357594 0.0 1022237
10:00+10всв556075 0.0 1022881
13:00+10св456280 0.1 10211187
16:00+9св565293 0.1 10211031
19:00+9св564897 0.1 10211614
22:00+8всв3665100 0.1 1021399
11 мая, вт
вт1101:00+6св3771100 0.0 1021209
04:00+6с3675100 0.0 1021234
07:00+7с3774100 0.0 1022287
10:00+10с466382 0.0 1022640
13:00+14с444648 0.1 10211810
16:00+14с2345100 0.0 10201697
19:00+14с124364 0.0 10201674
22:00+11зюз005644 0.0 102110